Samedan Airport

Airport
ICAO code: 
LSZS
IATA Code: 
SMV
Summary
ICAO Region: 
EUR
Territory: 
Location: 
Samedan, Graubunden
Serving: 
Sankt Moritz
Elevation: 
5600 ft
Coordinates: 
Aerial View: 
46° 32' 2.67" N, 9° 53' 2.782" E
Airport CFIT: 
Altimeter Temperature Error Correction
Airport GND: 
Aircraft Ground De/Anti Icing
Metar
Observation
LSZS 262320Z AUTO VRB02KT 9999 NCD M13/M15 Q1027
Station
SAMEDAN
Date/Time
2022-01-26 23:20:00
Wind speed
02 kts
Lowest cloud amount
no clouds detected
Temperature
-13°C
Dew point
-15°C
Humidity
84%
QNH
1027 hPa
Weather condition
n/a

Description

Samedan Airport, also known as Engadin Airport, is a regional airport in Samedan in the Engadin valley of Switzerland, 5 km from St. Moritz.

Climatology

Alpine climate (Köppen climate classification ET) - warmest month has an average temperature of 0 - 10 degrees C.

In the Summer (warm) months, pilots should be aware of the possibility of Maloja Wind effects

Runways

Designator Length Width Surface Rops
3/21 1800 40 ASP Yes/Yes
Airport map: 
Aerial View: 

Accidents and Serious Incidents at or in the vicinity of LSZS

SKYbrary Partners:

Safety knowledge contributed by: